BAW1427 EGLL-EGPE

Flight info

Callsign BAW1427
Flight time N/A
Altitude 36000
Route ULTIB T420 TNT UN57 POL UN601 RIBEL DCT SHAPP DCT INREV DCT TLA DCT FOYLE/N0358F250 N560 NESDI DCT GUSSI
Aircraft A20N/M-SDE2E3FGHIRWXY/LB1

Departure

Time N/A
Airport London Heathrow Airport (EGLL)

Arrival

Time 2026-05-07 22:18
Airport Inverness Airport (EGPE)
Time Latitude Longitude Altitude Speed Heading
2026-05-07 21:16 51.83161 -0.44457 13048 ft 351 kts 327°
2026-05-07 21:16 51.85282 -0.46513 13935 ft 357 kts 327°
2026-05-07 21:17 51.87450 -0.48617 14764 ft 362 kts 327°
2026-05-07 21:17 51.89592 -0.50700 15606 ft 365 kts 327°
2026-05-07 21:17 51.91788 -0.52838 16446 ft 369 kts 327°
2026-05-07 21:17 51.94013 -0.55006 17265 ft 373 kts 327°
2026-05-07 21:18 51.96227 -0.57167 18075 ft 377 kts 327°
2026-05-07 21:18 51.98500 -0.59388 18817 ft 381 kts 327°
2026-05-07 21:18 52.00751 -0.61590 19511 ft 384 kts 327°
2026-05-07 21:18 52.03063 -0.63854 20210 ft 388 kts 327°
2026-05-07 21:19 52.05392 -0.66139 20913 ft 391 kts 327°
2026-05-07 21:19 52.07739 -0.68443 21598 ft 395 kts 327°
2026-05-07 21:19 52.10085 -0.70749 22275 ft 399 kts 326°
2026-05-07 21:19 52.12471 -0.73098 22946 ft 403 kts 326°
2026-05-07 21:20 52.14878 -0.75471 23607 ft 406 kts 326°
2026-05-07 21:20 52.17315 -0.77878 24182 ft 410 kts 326°
2026-05-07 21:20 52.19769 -0.80303 24757 ft 412 kts 326°
2026-05-07 21:20 52.22229 -0.82738 25311 ft 415 kts 326°
2026-05-07 21:21 52.24680 -0.85167 25841 ft 418 kts 326°
2026-05-07 21:21 52.27186 -0.87653 26379 ft 421 kts 326°
2026-05-07 21:21 52.29706 -0.90156 26905 ft 424 kts 326°
2026-05-07 21:21 52.32231 -0.92666 27406 ft 427 kts 326°
2026-05-07 21:22 52.34783 -0.95207 27898 ft 429 kts 326°
2026-05-07 21:22 52.37315 -0.97732 28362 ft 432 kts 326°
2026-05-07 21:22 52.39895 -1.00308 28819 ft 435 kts 326°
2026-05-07 21:22 52.42502 -1.02915 29269 ft 438 kts 326°
2026-05-07 21:23 52.45081 -1.05497 29668 ft 440 kts 326°
2026-05-07 21:23 52.47718 -1.08141 30096 ft 443 kts 326°
2026-05-07 21:23 52.50366 -1.10800 30460 ft 446 kts 326°
2026-05-07 21:23 52.52989 -1.13442 30839 ft 448 kts 326°
2026-05-07 21:24 52.55659 -1.16137 31226 ft 449 kts 326°
2026-05-07 21:24 52.58334 -1.18838 31697 ft 449 kts 326°
2026-05-07 21:24 52.60975 -1.21503 32191 ft 448 kts 326°
2026-05-07 21:24 52.63641 -1.24199 32681 ft 446 kts 325°
2026-05-07 21:25 52.66293 -1.26883 33163 ft 445 kts 325°
2026-05-07 21:25 52.68906 -1.29534 33630 ft 444 kts 325°
2026-05-07 21:25 52.71544 -1.32213 34074 ft 443 kts 325°
2026-05-07 21:25 52.74149 -1.34866 34450 ft 443 kts 325°
2026-05-07 21:26 52.76783 -1.37552 34753 ft 444 kts 325°
2026-05-07 21:26 52.79421 -1.40248 35054 ft 445 kts 325°
2026-05-07 21:26 52.82065 -1.42951 35346 ft 446 kts 325°
2026-05-07 21:26 52.84673 -1.45622 35630 ft 446 kts 325°
2026-05-07 21:27 52.87316 -1.48332 35902 ft 447 kts 325°
2026-05-07 21:27 52.89975 -1.51063 36036 ft 447 kts 325°
2026-05-07 21:27 52.95248 -1.56488 36047 ft 446 kts 325°
2026-05-07 21:28 53.00528 -1.61939 36047 ft 446 kts 325°
2026-05-07 21:28 53.05886 -1.67071 36041 ft 448 kts 332°
2026-05-07 21:29 53.11750 -1.70867 36046 ft 451 kts 337°
2026-05-07 21:29 53.17593 -1.74518 36044 ft 450 kts 336°
2026-05-07 21:30 53.23479 -1.78197 36041 ft 450 kts 337°
2026-05-07 21:30 53.28372 -1.81251 36040 ft 450 kts 337°
2026-05-07 21:31 53.35182 -1.85511 36038 ft 450 kts 337°
2026-05-07 21:31 53.40075 -1.88581 36037 ft 450 kts 337°
2026-05-07 21:32 53.45947 -1.92275 36036 ft 450 kts 336°
2026-05-07 21:32 53.52785 -1.96592 36034 ft 451 kts 336°
2026-05-07 21:33 53.57679 -1.99690 36036 ft 451 kts 336°
2026-05-07 21:33 53.63542 -2.03411 36033 ft 452 kts 336°
2026-05-07 21:34 53.69450 -2.07172 36032 ft 452 kts 336°
2026-05-07 21:34 53.75319 -2.10922 36035 ft 452 kts 336°
2026-05-07 21:35 53.81176 -2.14891 36032 ft 452 kts 335°
2026-05-07 21:35 53.87001 -2.18907 36025 ft 453 kts 335°
2026-05-07 21:36 53.92820 -2.22906 36023 ft 453 kts 335°
2026-05-07 21:36 53.98667 -2.26928 36020 ft 453 kts 335°
2026-05-07 21:37 54.04532 -2.30972 36018 ft 453 kts 335°
2026-05-07 21:37 54.10362 -2.35000 36016 ft 454 kts 335°
2026-05-07 21:38 54.16189 -2.39038 36017 ft 454 kts 335°
2026-05-07 21:38 54.22059 -2.43120 36016 ft 454 kts 335°
2026-05-07 21:39 54.27918 -2.47207 36010 ft 454 kts 335°
2026-05-07 21:39 54.33771 -2.51302 36008 ft 455 kts 335°
2026-05-07 21:40 54.39610 -2.55400 36008 ft 455 kts 335°
2026-05-07 21:40 54.45500 -2.59546 36014 ft 456 kts 335°
2026-05-07 21:41 54.51377 -2.63695 36012 ft 456 kts 335°
2026-05-07 21:41 54.57239 -2.67849 36015 ft 456 kts 335°
2026-05-07 21:42 54.63100 -2.72013 36012 ft 457 kts 335°
2026-05-07 21:42 54.68960 -2.76190 36005 ft 457 kts 335°
2026-05-07 21:43 54.74861 -2.80411 36005 ft 457 kts 335°
2026-05-07 21:43 54.80756 -2.84639 36004 ft 458 kts 335°
2026-05-07 21:44 54.86619 -2.88858 36003 ft 458 kts 335°
2026-05-07 21:44 54.92516 -2.93115 35998 ft 458 kts 334°
2026-05-07 21:45 54.98400 -2.97376 35998 ft 459 kts 334°
2026-05-07 21:45 55.04272 -3.01642 35995 ft 459 kts 334°
2026-05-07 21:46 55.10182 -3.05949 35985 ft 460 kts 334°
2026-05-07 21:46 55.16063 -3.10249 35997 ft 460 kts 334°
2026-05-07 21:47 55.21978 -3.14588 35998 ft 460 kts 334°
2026-05-07 21:47 55.27907 -3.18952 35987 ft 461 kts 334°
2026-05-07 21:48 55.33794 -3.23298 35979 ft 461 kts 334°
2026-05-07 21:48 55.39718 -3.27685 35974 ft 461 kts 334°
2026-05-07 21:49 55.45659 -3.32120 35981 ft 461 kts 332°
2026-05-07 21:49 55.51154 -3.37735 35973 ft 457 kts 321°
2026-05-07 21:50 55.56006 -3.44915 35972 ft 454 kts 315°
2026-05-07 21:50 55.60734 -3.52282 35972 ft 455 kts 315°
2026-05-07 21:51 55.65479 -3.59729 35975 ft 455 kts 315°
2026-05-07 21:51 55.70180 -3.67163 35971 ft 455 kts 314°
2026-05-07 21:52 55.74908 -3.74672 35971 ft 455 kts 314°
2026-05-07 21:52 55.79631 -3.82200 35935 ft 453 kts 314°
2026-05-07 21:53 55.81943 -3.85890 35617 ft 450 kts 314°
2026-05-07 21:53 55.84276 -3.89623 35036 ft 450 kts 314°
2026-05-07 21:53 55.86609 -3.93363 34345 ft 451 kts 314°
2026-05-07 21:53 55.88946 -3.97117 33568 ft 452 kts 314°
2026-05-07 21:54 55.91285 -4.00882 32740 ft 453 kts 314°
2026-05-07 21:54 55.93604 -4.04620 31917 ft 454 kts 313°
2026-05-07 21:54 55.95947 -4.08401 31246 ft 452 kts 313°
2026-05-07 21:54 55.98292 -4.12193 30750 ft 457 kts 313°
2026-05-07 21:55 56.00640 -4.15997 30249 ft 460 kts 313°
2026-05-07 21:55 56.03002 -4.19826 29713 ft 455 kts 313°
2026-05-07 21:55 56.05339 -4.23617 29140 ft 449 kts 313°
2026-05-07 21:55 56.07612 -4.27312 28585 ft 443 kts 313°
2026-05-07 21:56 56.09888 -4.31023 28031 ft 440 kts 313°
2026-05-07 21:56 56.12338 -4.34368 27485 ft 443 kts 325°
2026-05-07 21:56 56.15172 -4.36634 26956 ft 447 kts 339°
2026-05-07 21:56 56.18215 -4.37660 26433 ft 451 kts 353°
2026-05-07 21:57 56.21360 -4.37429 25920 ft 452 kts
2026-05-07 21:57 56.24427 -4.36516 24714 ft 448 kts 10°
2026-05-07 21:57 56.27480 -4.35505 24241 ft 438 kts 10°
2026-05-07 21:57 56.30435 -4.34599 24043 ft 422 kts
2026-05-07 21:58 56.33295 -4.33810 24002 ft 412 kts
2026-05-07 21:58 56.36137 -4.33087 23917 ft 420 kts
2026-05-07 21:58 56.39041 -4.32382 23552 ft 419 kts
2026-05-07 21:58 56.41926 -4.31695 23077 ft 414 kts
2026-05-07 21:59 56.44767 -4.31022 22600 ft 407 kts
2026-05-07 21:59 56.47529 -4.30367 22136 ft 406 kts
2026-05-07 21:59 56.50331 -4.29700 21658 ft 404 kts
2026-05-07 21:59 56.52184 -4.29258 21351 ft 402 kts
2026-05-07 22:00 56.55878 -4.28374 20701 ft 397 kts
2026-05-07 22:00 56.58584 -4.27725 20229 ft 395 kts
2026-05-07 22:00 56.61301 -4.27073 19683 ft 392 kts
2026-05-07 22:00 56.63991 -4.26425 19113 ft 388 kts
2026-05-07 22:01 56.66677 -4.25763 19118 ft 390 kts
2026-05-07 22:01 56.69437 -4.25096 18559 ft 410 kts
2026-05-07 22:01 56.72284 -4.24409 17978 ft 408 kts
2026-05-07 22:01 56.75062 -4.23735 17301 ft 404 kts
2026-05-07 22:02 56.77815 -4.23065 16568 ft 393 kts
2026-05-07 22:02 56.80506 -4.22410 15832 ft 386 kts
2026-05-07 22:02 56.83138 -4.21768 15207 ft 376 kts
2026-05-07 22:02 56.85712 -4.21141 14615 ft 368 kts
2026-05-07 22:03 56.88201 -4.20534 14024 ft 360 kts
2026-05-07 22:03 56.90672 -4.19933 13417 ft 353 kts
2026-05-07 22:03 56.93085 -4.19345 12767 ft 347 kts
2026-05-07 22:03 56.95470 -4.18763 12126 ft 341 kts
2026-05-07 22:04 56.97781 -4.18200 11511 ft 337 kts
2026-05-07 22:04 57.00097 -4.17636 10898 ft 332 kts
2026-05-07 22:04 57.02376 -4.17077 10295 ft 328 kts
2026-05-07 22:04 57.04609 -4.16527 9700 ft 324 kts
2026-05-07 22:05 57.06832 -4.15982 9058 ft 318 kts
2026-05-07 22:05 57.09025 -4.15444 8472 ft 314 kts
2026-05-07 22:05 57.11158 -4.14919 7902 ft 311 kts
2026-05-07 22:05 57.13298 -4.14393 7333 ft 308 kts
2026-05-07 22:06 57.15398 -4.13873 6978 ft 300 kts
2026-05-07 22:06 57.17497 -4.13358 6869 ft 303 kts
2026-05-07 22:06 57.18884 -4.13016 6943 ft 304 kts
2026-05-07 22:06 57.21658 -4.12175 6912 ft 308 kts 13°
2026-05-07 22:07 57.23684 -4.10899 6691 ft 304 kts 18°
2026-05-07 22:07 57.25654 -4.09592 6463 ft 297 kts 18°
2026-05-07 22:07 57.27582 -4.08318 6237 ft 289 kts 18°
2026-05-07 22:07 57.29436 -4.07097 6005 ft 282 kts 18°
2026-05-07 22:08 57.31269 -4.05893 5764 ft 277 kts 17°
2026-05-07 22:08 57.33076 -4.04708 5527 ft 272 kts 17°
2026-05-07 22:08 57.34846 -4.03543 5298 ft 267 kts 17°
2026-05-07 22:08 57.36583 -4.02400 5060 ft 265 kts 17°
2026-05-07 22:09 57.38331 -4.01251 4842 ft 266 kts 17°
2026-05-07 22:09 57.40064 -4.00110 4608 ft 264 kts 17°
2026-05-07 22:09 57.41796 -3.98965 4385 ft 262 kts 17°
2026-05-07 22:09 57.42922 -3.98221 4233 ft 262 kts 18°
2026-05-07 22:10 57.45217 -3.96705 3920 ft 259 kts 18°
2026-05-07 22:10 57.46340 -3.95965 3756 ft 258 kts 18°
2026-05-07 22:10 57.48028 -3.94850 3530 ft 256 kts 18°
2026-05-07 22:10 57.49688 -3.93768 3297 ft 255 kts 18°
2026-05-07 22:11 57.51905 -3.92327 3030 ft 248 kts 18°
2026-05-07 22:11 57.52972 -3.91635 2999 ft 240 kts 18°
2026-05-07 22:11 57.55012 -3.90311 3006 ft 236 kts 18°
2026-05-07 22:11 57.56555 -3.89291 2979 ft 232 kts 18°
2026-05-07 22:12 57.58054 -3.88300 2851 ft 225 kts 18°
2026-05-07 22:12 57.59432 -3.86950 2613 ft 224 kts 36°
2026-05-07 22:12 57.60668 -3.85204 2412 ft 220 kts 45°
2026-05-07 22:12 57.61871 -3.83530 2266 ft 214 kts 20°
2026-05-07 22:13 57.62824 -3.83150 2104 ft 209 kts 357°
2026-05-07 22:13 57.64476 -3.84369 2014 ft 193 kts 303°
2026-05-07 22:13 57.64975 -3.86535 2002 ft 175 kts 262°
2026-05-07 22:13 57.64605 -3.88538 1999 ft 159 kts 224°
2026-05-07 22:14 57.64080 -3.89491 1982 ft 159 kts 217°
2026-05-07 22:14 57.62937 -3.91033 1981 ft 149 kts 213°
2026-05-07 22:14 57.62092 -3.92073 1999 ft 139 kts 211°
2026-05-07 22:14 57.61326 -3.92910 1974 ft 117 kts 208°
2026-05-07 22:15 57.60584 -3.93593 1814 ft 122 kts 205°
2026-05-07 22:15 57.60079 -3.94054 1599 ft 122 kts 207°
2026-05-07 22:15 57.59355 -3.94830 1332 ft 119 kts 211°
2026-05-07 22:15 57.58657 -3.95781 1233 ft 123 kts 216°
2026-05-07 22:16 57.57814 -3.97193 1013 ft 123 kts 218°
2026-05-07 22:16 57.57411 -3.97941 873 ft 122 kts 219°
2026-05-07 22:16 57.56834 -3.99117 708 ft 122 kts 220°
2026-05-07 22:16 57.56282 -4.00339 532 ft 125 kts 220°
2026-05-07 22:17 57.55518 -4.02008 293 ft 130 kts 219°
2026-05-07 22:17 57.55121 -4.02856 166 ft 131 kts 223°
2026-05-07 22:17 57.54546 -4.04116 45 ft 119 kts 227°
2026-05-07 22:17 57.54060 -4.05160 35 ft 89 kts 230°
2026-05-07 22:18 57.53746 -4.05847 37 ft 26 kts 230°
2026-05-07 22:18 57.53793 -4.06174 39 ft 14 kts 337°
2026-05-07 22:18 57.53901 -4.06173 38 ft 17 kts 360°
2026-05-07 22:19 57.53948 -4.06211 38 ft 3 kts 249°
2026-05-07 22:19 57.53932 -4.06222 39 ft 0 kts 180°